Regional Weather Roundup
Issued by NWS

Home | Current Version | Previous Version | Text Only | Print | Product List | Glossary Off
Versions: 1 2 3 4 5 6 7 8 9 10 11 12 13 14 15 16 17 18 19 20 21 22 23 24 25 26 27 28 29 30 31 32 33 34 35 36 37 38 39 40 41 42 43 44 45 46 47 48 49 50

000
ASUS44 KMEG 201610
RWRTN
TENNESSEE HOURLY STATE WEATHER ROUNDUP
NATIONAL WEATHER SERVICE MEMPHIS TN
1100 AM CDT SUN APR 20 2014

TNZ002-004-019-021-049-052-054-088>092-201700-
WEST TENNESSEE

CITY           SKY/WX    TMP DP  RH WIND       PRES   REMARKS
MEMPHIS INTL   MOSUNNY   73  48  41 S6        30.22F
NWS MEMPHIS      N/A     74 N/A N/A MISG        N/A
JACKSON        SUNNY     73  45  36 S8        30.23F
DYERSBURG      SUNNY     73  48  40 SE7       30.23F
UNION CITY     SUNNY     72  48  43 S6        30.21F
LEXINGTON      SUNNY     70  48  46 W9        30.23F
SAVANNAH       SUNNY     69  49  48 SW8       30.25F
$$

TNZ008-025-027-028-033-062-065-066-201700-
NORTH MIDDLE TENNESSEE

CITY           SKY/WX    TMP DP  RH WIND       PRES   REMARKS
NASHVILLE      MOSUNNY   73  43  33 S3        30.23F
DICKSON        SUNNY     72  41  33 W8        30.23S
PORTLAND       SUNNY     70  45  40 W6        30.21F
CLARKSVILLE    SUNNY     71  44  37 W5        30.23S
SMYRNA         SUNNY     72  46  39 CALM      30.24F
MURFREESBORO   SUNNY     71  46  40 SW3       30.23F
COOKEVILLE     SUNNY     72  45  37 W5        30.25S
LIVINGSTON     SUNNY     70  38  31 CALM      30.25S
GALLATIN       SUNNY     68  47  46 S7        30.24F
CROSSVILLE     SUNNY     67  39  35 NE5       30.26F
$$

TNZ061-075-076-078-094-096-097-201700-
SOUTH MIDDLE TENNESSEE

CITY           SKY/WX    TMP DP  RH WIND       PRES   REMARKS
LEWISBURG      SUNNY     71  50  47 SW3       30.23F
FAYETTEVILLE   SUNNY     65  47  52 W6        30.25F
TULLAHOMA      SUNNY     68  46  45 CALM      30.25F
WINCHESTER     SUNNY     68  48  49 CALM      30.25F
MCMINNVILLE    SUNNY     70  46  43 W3        30.25S
COLUMBIA       SUNNY     72  55  56 VRB5      30.23S
SHELBYVILLE    SUNNY     70  52  52 CALM      30.25F
$$

TNZ017-018-042-046-047-201700-
NORTHEAST TENNESSEE

CITY           SKY/WX    TMP DP  RH WIND       PRES   REMARKS
TRI CITIES     MOSUNNY   64  31  28 CALM      30.27F
ELIZABETHTON   SUNNY     63  34  34 CALM      30.26F
$$

TNZ012-013-036-069-073-074-201700-
CENTRAL EAST TENNESSEE

CITY           SKY/WX    TMP DP  RH WIND       PRES   REMARKS
KNOXVILLE      MOSUNNY   65  46  50 NE6       30.25
OAK RIDGE      SUNNY     67  42  40 CALM      30.27S
$$

TNZ083-085-099-201700-
SOUTHEAST TENNESSEE

CITY           SKY/WX    TMP DP  RH WIND       PRES   REMARKS
CHATTANOOGA    SUNNY     67  47  48 W3        30.26F
$$

SKY/WX REPORTED AS FAIR MEANS FEW OR NO CLOUDS BELOW
12 THOUSAND FEET.




USA.gov is the U.S. government's official web portal to all federal, state and local government web resources and services.